• Join FlightAware (Why Join?)
  • Login
  • US Flag GB Flag 
09:10 EDT


 

Airport Tracker/Info


-or-


 

Live Flight TrackerFlight Track Log ✈ TF-LLX ✈ 15-Apr-2013 ✈ BIKF / KEF - EKCH / CPH

Flight Track Log - Related Links

Times and Time Zones

All times are in EDT time to prevent confusion due to time zone crossing. See the TF-LLX flight status page for this flight to view local times or setup timezone preferences in your user account.

Time Position Orientation Groundspeed Altitude Reporting Facility
EDT Latitude Longitude Course Direction KTS MPH feet Rate Location/Type
03:58 63.9570 -22.3480 105° East 253 291 5,500  Level FlightAware
03:58 63.9470 -22.2680 106° East 257 296 7,000 3,060 Climbing FlightAware
03:59 63.9370 -22.1890 106° East 259 298 8,600 2,820 Climbing FlightAware
03:59 63.9300 -22.1250 104° East 266 306 9,600 2,160 Climbing FlightAware
04:00 63.9160 -22.0120 106° East 301 346 11,000 2,040 Climbing FlightAware
04:00 63.8980 -21.8620 105° East 344 396 12,500 2,520 Climbing FlightAware
04:01 63.8790 -21.7170 107° East 357 411 14,600 2,820 Climbing FlightAware
04:02 63.8660 -21.5510 100° East 375 432 16,500 2,880 Climbing FlightAware
04:02 63.8580 -21.3930 96° East 376 433 18,700 3,000 Climbing FlightAware
04:03 63.8510 -21.2360 96° East 381 438 20,500 2,580 Climbing FlightAware
04:04 63.8420 -21.0520 96° East 387 445 22,400 2,400 Climbing FlightAware
04:05 63.8330 -20.8900 97° East 395 455 23,900 2,100 Climbing FlightAware
04:05 63.8230 -20.7070 97° East 401 461 25,400 1,800 Climbing FlightAware
04:06 63.8150 -20.5430 96° East 413 475 26,500 1,560 Climbing FlightAware
04:07 63.8050 -20.3640 97° East 424 488 27,500 1,380 Climbing FlightAware
04:07 63.7930 -20.1580 97° East 440 506 28,500 1,380 Climbing FlightAware
04:08 63.7820 -19.9730 98° East 451 519 29,500 1,380 Climbing FlightAware
04:09 63.7690 -19.7660 98° East 460 529 30,500 1,620 Climbing FlightAware
04:09 63.7580 -19.5760 97° East 457 526 31,800 1,980 Climbing FlightAware
04:10 63.7460 -19.3900 98° East 452 520 33,200 1,920 Climbing FlightAware
04:11 63.7320 -19.1770 98° East 446 513 34,600 1,680 Climbing FlightAware
04:12 63.7200 -18.9930 98° East 447 514 35,600 1,380 Climbing FlightAware
04:12 63.7060 -18.7860 99° East 448 516 36,600 1,080 Climbing FlightAware
04:13 63.6940 -18.6060 98° East 451 519 37,200 900 Climbing FlightAware
04:14 63.6790 -18.3970 99° East 452 520 37,900 960 Climbing FlightAware
04:14 63.6660 -18.2110 99° East 452 520 38,600 720 Climbing FlightAware
04:15 63.6520 -18.0260 100° East 452 520 38,900 180 Climbing FlightAware
04:16 63.6360 -17.8130 100° East 451 519 38,900  Level FlightAware
04:16 63.6220 -17.6290 100° East 450 518 38,900  Level FlightAware
04:17 63.6080 -17.4450 100° East 451 519 38,900  Level FlightAware
04:18 63.5920 -17.2470 100° East 451 519 38,900  Level FlightAware
04:19 63.5770 -17.0580 100° East 452 520 38,900  Level FlightAware
04:19 63.5600 -16.8500 100° East 453 521 38,900  Level FlightAware
04:20 63.5450 -16.6610 100° East 454 522 38,900  Level FlightAware
04:21 63.5290 -16.4720 101° East 455 524 38,900  Level FlightAware
04:21 63.5120 -16.2730 101° East 456 525 38,900  Level FlightAware
04:22 63.4930 -16.0600 101° East 457 526 38,900  Level FlightAware
04:23 63.4760 -15.8750 102° East 458 527 38,900  Level FlightAware
04:23 63.4600 -15.6890 101° East 459 528 38,900  Level FlightAware
04:24 63.4420 -15.4950 102° East 459 528 38,900  Level FlightAware
04:25 63.4250 -15.3090 101° East 459 528 38,900  Level FlightAware
04:26 63.4040 -15.0960 102° East 460 529 38,900  Level FlightAware
04:26 63.3860 -14.9020 102° East 460 529 38,900  Level FlightAware
04:27 63.3680 -14.7170 102° East 460 529 38,900  Level FlightAware
04:28 63.3490 -14.5310 103° East 461 531 38,900  Level FlightAware
04:28 63.3290 -14.3280 102° East 461 531 38,900  Level FlightAware
04:29 63.3090 -14.1390 103° East 460 529 38,900  Level FlightAware
04:30 63.2880 -13.9360 103° East 461 531 38,900  Level FlightAware
04:31 63.2660 -13.7240 103° East 461 531 38,900  Level FlightAware
04:31 63.2460 -13.5410 104° East 461 531 38,900  Level FlightAware
04:32 63.2260 -13.3570 103° East 460 529 38,900  Level FlightAware
04:33 63.2040 -13.1560 104° East 460 529 38,900  Level FlightAware
04:33 63.1840 -12.9690 103° East 458 527 38,900  Level FlightAware
04:34 63.1610 -12.7700 104° East 457 526 38,900  Level FlightAware
04:35 63.1400 -12.5840 104° East 458 527 38,900  Level FlightAware
04:35 63.1200 -12.4120 104° East 457 526 38,900  Level FlightAware
04:36 63.0950 -12.2050 105° East 456 525 38,900  Level FlightAware
04:37 63.0740 -12.0260 104° East 455 524 38,900  Level FlightAware
04:38 63.0500 -11.8240 105° East 454 522 38,900  Level FlightAware
04:38 63.0280 -11.6460 105° East 454 522 38,900  Level FlightAware
04:39 63.0030 -11.4410 105° East 455 524 38,900  Level FlightAware
04:40 62.9810 -11.2630 105° East 454 522 38,900  Level FlightAware
04:40 62.9580 -11.0860 106° East 454 522 38,900  Level FlightAware
04:41 62.9330 -10.8900 106° East 453 521 38,900  Level FlightAware
04:42 62.9100 -10.7140 106° East 454 522 38,900  Level FlightAware
04:42 62.8860 -10.5330 106° East 453 521 38,900  Level FlightAware
04:43 62.8610 -10.3390 106° East 455 524 38,900  Level FlightAware
04:44 62.8370 -10.1630 107° East 455 524 38,900  Level FlightAware
04:44 62.8130 -9.9860 106° East 455 524 38,900  Level FlightAware
04:45 62.7850 -9.7840 107° East 456 525 38,900  Level FlightAware
04:46 62.7620 -9.6170 107° East 457 526 38,900  Level FlightAware
04:47 62.7330 -9.4090 107° East 458 527 38,900  Level FlightAware
04:47 62.7110 -9.2560 107° East 458 527 38,900  Level FlightAware
04:48 62.6890 -9.0960 107° East 458 527 38,900  Level FlightAware
04:49 62.6620 -8.9080 107° East 458 527 38,900  Level FlightAware
04:49 62.6410 -8.7580 107° East 458 527 38,900  Level FlightAware
04:50 62.6200 -8.6080 107° East 458 527 38,900  Level FlightAware
04:51 62.5990 -8.4590 107° East 458 527 38,900  Level FlightAware
04:51 62.5780 -8.3090 107° East 458 527 38,900  Level FlightAware
04:52 62.5510 -8.1220 107° East 458 527 38,900  Level FlightAware
04:53 62.4920 -7.7820 110° East 460 529 38,900  Level FlightAware
04:54 62.4620 -7.5860 108° East 461 531 38,900  Level FlightAware
04:54 62.4320 -7.4020 109° East 461 531 38,900  Level FlightAware
04:55 62.4040 -7.2290 109° East 462 532 38,900  Level FlightAware
04:56 62.3720 -7.0290 109° East 462 532 38,900  Level FlightAware
04:56 62.3480 -6.8780 109° East 462 532 38,900  Level FlightAware
04:57 62.3220 -6.7170 109° East 463 533 38,900  Level FlightAware
04:58 62.2840 -6.4930 110° East 461 531 38,900  Level FlightAware
04:59 62.2520 -6.3030 110° East 461 531 38,900  Level FlightAware
04:59 62.2220 -6.1230 110° East 460 529 38,900  Level FlightAware
05:00 62.1920 -5.9480 110° East 460 529 38,900  Level FlightAware
05:01 62.1670 -5.8020 110° East 460 529 38,900  Level FlightAware
05:01 62.1420 -5.6560 110° East 460 529 38,900  Level FlightAware
05:02 62.1000 -5.4210 111° Southeast 462 532 38,900  Level FlightAware
05:04 62.0260 -5.0090 111° Southeast 462 532 38,900  Level FlightAware
05:05 61.9720 -4.7100 111° Southeast 463 533 38,900  Level FlightAware
05:06 61.9130 -4.3920 111° Southeast 462 532 38,900  Level FlightAware
05:07 61.8580 -4.0960 111° Southeast 463 533 38,900  Level FlightAware
05:08 61.7980 -3.7790 112° Southeast 467 537 38,900  Level FlightAware
05:10 61.7400 -3.4850 113° Southeast 465 535 38,900  Level FlightAware
05:11 61.6820 -3.1870 112° Southeast 465 535 38,900  Level FlightAware
05:12 61.6230 -2.8880 112° Southeast 463 533 38,900  Level FlightAware
05:13 61.5960 -2.7460 112° Southeast 463 533 38,900  Level FlightAware
05:14 61.5310 -2.4400 114° Southeast 461 531 38,900  Level FlightAware
05:15 61.5030 -2.3000 113° Southeast 461 531 38,900  Level FlightAware
05:15 61.4750 -2.1600 113° Southeast 461 531 38,900  Level FlightAware
05:16 61.4020 -1.8230 114° Southeast 458 527 38,900  Level FlightAware
05:17 61.3640 -1.6390 113° Southeast 458 527 38,900  Level FlightAware
05:18 61.3360 -1.5010 113° Southeast 458 527 38,900  Level FlightAware
05:18 61.3080 -1.3630 113° Southeast 458 527 38,900  Level FlightAware
05:19 61.2730 -1.1900 113° Southeast 458 527 38,900  Level FlightAware
05:20 61.2450 -1.0520 113° Southeast 458 527 38,900  Level FlightAware
05:21 61.2160 -0.9140 114° Southeast 458 527 38,900  Level FlightAware
05:21 61.1440 -0.6340 118° Southeast 462 532 38,900  Level FlightAware
05:22 61.1060 -0.4640 115° Southeast 463 533 38,900  Level FlightAware
05:23 61.0750 -0.3280 115° Southeast 463 533 38,900  Level FlightAware
05:25 60.9671 0.0128 123° Southeast  Level Estimated
05:25 60.8920 0.3050 123° Southeast 447 514 38,900  Level FlightAware
05:26 60.8410 0.4460 127° Southeast 448 516 38,900  Level FlightAware
05:27 60.7920 0.5800 127° Southeast 448 516 38,900  Level FlightAware
05:27 60.7350 0.7380 126° Southeast 447 514 38,900  Level FlightAware
05:28 60.6860 0.8710 127° Southeast 446 513 38,900  Level FlightAware
05:29 60.6350 1.0100 127° Southeast 450 518 38,900  Level FlightAware
05:29 60.5860 1.1420 127° Southeast 449 517 38,900  Level FlightAware
05:30 60.5300 1.2930 127° Southeast 449 517 38,900  Level FlightAware
05:33 60.3872 1.7142 124° Southeast  Level Estimated
05:33 60.3540 1.7600 124° Southeast 449 517 38,900  Level FlightAware
05:35 60.2310 2.1172 125° Southeast  Level Estimated
05:35 60.1632 2.2578 125° Southeast 458 527 37,400  Level FlightAware UK
05:36 60.1200 2.3650 125° Southeast 447 514 38,900  Climbing FlightAware
05:36 60.0933 2.4347 125° Southeast 458 527 37,400 -2,760 Descending FlightAware UK
05:36 60.0706 2.4933 128° Southeast 458 527 37,400  Level FlightAware UK
05:36 60.0473 2.5515 129° Southeast 458 527 37,400  Level FlightAware UK
05:37 60.0163 2.6290 129° Southeast 458 527 37,400  Level FlightAware UK
05:38 59.9618 2.7645 129° Southeast 456 525 37,400 1,380 Level FlightAware UK
05:38 59.9410 2.8170 129° Southeast 445 512 38,900  Climbing FlightAware
05:38 59.9087 2.8994 129° Southeast 456 525 37,400 -2,460 Descending FlightAware UK
05:39 59.8866 2.9566 128° Southeast 458 527 37,400  Level FlightAware UK
05:39 59.8558 3.0335 129° Southeast 458 527 37,400  Level FlightAware UK
05:39 59.8253 3.1097 128° Southeast 460 529 37,400  Level FlightAware UK
05:40 59.8012 3.1660 130° Southeast 456 525 37,400  Level FlightAware UK
05:40 59.7706 3.2429 128° Southeast 456 525 37,400  Level FlightAware UK
05:40 59.7390 3.3184 130° Southeast 454 522 37,400  Level FlightAware UK
05:41 59.7078 3.3940 129° Southeast 454 522 37,400  Level FlightAware UK
05:42 59.6534 3.5272 129° Southeast 450 518 37,400  Level FlightAware UK
05:42 59.6231 3.6032 128° Southeast 454 522 37,400  Level FlightAware UK
05:42 59.5915 3.6780 130° Southeast 450 518 37,400  Level FlightAware UK
05:43 59.5601 3.7531 130° Southeast 454 522 37,400  Level FlightAware UK
05:43 59.5362 3.8091 130° Southeast 454 522 37,400  Level FlightAware UK
05:44 59.4983 3.9040 128° Southeast 452 520 37,400  Level FlightAware UK
05:44 59.4750 3.9604 129° Southeast 454 522 37,400 960 Level FlightAware UK
05:45 59.3830 4.1760 129° Southeast 449 517 38,900  Climbing FlightAware
05:47 59.2128 4.5781 129° Southeast 460 529 37,400 -600 Descending FlightAware UK
05:48 59.1727 4.6710 130° Southeast 470 541 37,400  Level FlightAware UK
05:48 59.1259 4.7834 129° Southeast 466 536 37,400 2,460 Level FlightAware UK
05:48 59.1320 4.7620 129° Southeast 446 513 38,900  Climbing FlightAware
05:49 59.1018 4.8381 129° Southeast 464 534 37,400  Descending FlightAware UK
05:49 59.0590 4.9290 129° Southeast 444 511 38,900 1,200 Climbing FlightAware
05:50 59.0050 5.0510 131° Southeast 444 511 38,900  Level FlightAware
05:51 58.9470 5.1860 130° Southeast 443 510 38,900 -1,500 Level FlightAware
05:51 58.9250 5.2366 130° Southeast 458 527 37,400  Descending FlightAware UK
05:51 58.8930 5.3070 130° Southeast 442 509 38,900 1,260 Climbing FlightAware
05:52 58.8340 5.4380 131° Southeast 441 507 38,900 -1,320 Level FlightAware
05:52 58.7967 5.5230 131° Southeast 458 527 37,400  Descending FlightAware UK
05:53 58.7810 5.5570 131° Southeast 440 506 38,900 1,620 Climbing FlightAware
05:53 58.7290 5.6720 131° Southeast 439 505 38,900  Level FlightAware
05:54 58.6670 5.8100 131° Southeast 438 504 38,900  Level FlightAware
05:55 58.6140 5.9270 131° Southeast 439 505 38,900  Level FlightAware
05:55 58.5550 6.0560 131° Southeast 438 504 38,900  Level FlightAware
05:56 58.5020 6.1720 131° Southeast 439 505 38,900  Level FlightAware
05:57 58.4490 6.2850 132° Southeast 438 504 38,900  Level FlightAware
05:58 58.3870 6.4180 132° Southeast 437 503 38,900  Level FlightAware
05:58 58.3330 6.5330 132° Southeast 439 505 38,900  Level FlightAware
05:59 58.2780 6.6510 132° Southeast 439 505 38,900  Level FlightAware
06:00 58.2200 6.7740 132° Southeast 438 504 38,900  Level FlightAware
06:00 58.1640 6.8910 132° Southeast 437 503 38,900  Level FlightAware
06:01 58.1040 7.0190 132° Southeast 436 502 38,900  Level FlightAware
06:02 58.0490 7.1340 132° Southeast 434 499 38,900  Level FlightAware
06:02 57.9880 7.2570 133° Southeast 433 498 38,900  Level FlightAware
06:03 57.9360 7.3650 132° Southeast 432 497 38,900  Level FlightAware
06:04 57.8910 7.4600 132° Southeast 431 496 38,900  Level FlightAware
06:05 57.8230 7.6000 132° Southeast 428 493 38,900  Level FlightAware
06:05 57.7820 7.6840 132° Southeast 426 490 38,900  Level FlightAware
06:06 57.7060 7.8350 133° Southeast 423 487 38,900  Level FlightAware
06:07 57.6550 7.9370 133° Southeast 423 487 38,900  Level FlightAware
06:07 57.6020 8.0460 132° Southeast 423 487 38,900  Level FlightAware
06:08 57.5400 8.1690 133° Southeast 421 484 38,900  Level FlightAware
06:09 57.4870 8.2740 133° Southeast 421 484 38,900  Level FlightAware
06:09 57.4350 8.3770 133° Southeast 421 484 38,900  Level FlightAware
06:10 57.3730 8.4980 134° Southeast 422 486 38,900  Level FlightAware
06:11 57.3200 8.6030 133° Southeast 423 487 38,900  Level FlightAware
06:12 57.2620 8.7150 134° Southeast 421 484 38,900  Level FlightAware
06:12 57.2070 8.8210 134° Southeast 420 483 38,900  Level FlightAware
06:13 57.1530 8.9270 133° Southeast 418 481 38,900  Level FlightAware
06:14 57.0940 9.0400 134° Southeast 417 480 38,900  Level FlightAware
06:14 57.0410 9.1420 134° Southeast 418 481 38,900  Level FlightAware
06:15 56.9850 9.2470 134° Southeast 417 480 38,900 -360 Level FlightAware
06:16 56.9250 9.3610 134° Southeast 418 481 38,400 -1,740 Descending FlightAware
06:16 56.8630 9.4770 134° Southeast 432 497 36,300 -2,340 Descending FlightAware
06:17 56.8080 9.5810 134° Southeast 423 487 35,100 -2,100 Descending FlightAware
06:18 56.7470 9.6940 135° Southeast 431 496 33,400 -1,920 Descending FlightAware
06:19 56.6920 9.7970 134° Southeast 432 497 32,400 -1,500 Descending FlightAware
06:19 56.6290 9.9120 135° Southeast 440 506 31,300 -1,500 Descending FlightAware
06:20 56.5720 10.0300 131° Southeast 460 529 30,300 -1,500 Descending FlightAware
06:21 56.5280 10.1660 120° Southeast 474 545 29,300 -1,500 Descending FlightAware
06:21 56.4860 10.3240 116° Southeast 464 534 28,200 -1,440 Descending FlightAware
06:22 56.4480 10.4580 117° Southeast 456 525 27,300 -1,440 Descending FlightAware
06:23 56.4100 10.5960 116° Southeast 447 514 26,300 -1,500 Descending FlightAware
06:23 56.3700 10.7410 116° Southeast 438 504 25,200 -1,560 Descending FlightAware
06:24 56.3330 10.8740 117° Southeast 431 496 24,100 -1,560 Descending FlightAware
06:25 56.2920 11.0170 117° Southeast 426 490 23,000 -1,440 Descending FlightAware
06:26 56.2590 11.1360 116° Southeast 423 487 22,100 -1,740 Descending FlightAware
06:26 56.2210 11.2700 117° Southeast 416 479 20,700 -2,100 Descending FlightAware
06:27 56.1830 11.4040 117° Southeast 406 467 19,200 -2,280 Descending FlightAware
06:28 56.1510 11.5100 118° Southeast 415 478 17,500 -2,340 Descending FlightAware
06:28 56.1100 11.6540 117° Southeast 400 460 15,900 -1,980 Descending FlightAware
06:29 56.0760 11.7700 118° Southeast 386 444 14,700 -2,280 Descending FlightAware
06:30 56.0450 11.8770 117° Southeast 387 445 12,900 -2,520 Descending FlightAware
06:30 56.0080 12.0010 118° Southeast 377 434 11,200 -2,280 Descending FlightAware
06:31 55.9760 12.1100 118° Southeast 364 419 9,700 -2,400 Descending FlightAware
06:32 55.9560 12.1770 118° Southeast 366 421 8,600 -2,400 Descending FlightAware
06:32 55.9400 12.2330 117° Southeast 363 418 7,900 -1,620 Descending FlightAware
06:32 55.9220 12.2920 119° Southeast 356 410 7,400 -900 Descending FlightAware
06:33 55.9100 12.3340 117° Southeast 323 372 7,300 -300 Descending FlightAware
06:33 55.8930 12.3920 118° Southeast 285 328 7,200 -660 Descending FlightAware
06:33 55.8740 12.4530 119° Southeast 272 313 6,700 -1,200 Descending FlightAware
06:34 55.8600 12.5010 117° Southeast 260 299 6,100 -1,200 Descending FlightAware
06:34 55.8430 12.5560 119° Southeast 242 278 5,600 -1,320 Descending FlightAware
06:35 55.8270 12.6080 119° Southeast 236 272 4,800 -1,680 Descending FlightAware
06:35 55.8150 12.6510 116° Southeast 228 262 4,100 -1,680 Descending FlightAware
06:36 55.8070 12.6740 122° Southeast 225 259 3,700 -1,740 Descending FlightAware
06:36 55.7920 12.7240 118° Southeast 217 250 2,800 -1,620 Descending FlightAware
06:37 55.7780 12.7700 118° Southeast 212 244 2,100 -1,140 Descending FlightAware
06:37 55.7650 12.8050 123° Southeast 187 215 1,800 -480 Descending FlightAware
06:37 55.7540 12.8120 160° South 164 189 1,800  Level FlightAware
06:38 55.7370 12.8080 188° South 165 190 1,800  Level FlightAware
06:38 55.7230 12.8040 189° South 165 190 1,800  Level FlightAware
06:38 55.7120 12.8000 192° South 158 182 1,800 180 Level FlightAware
06:38 55.7030 12.7890 215° Southwest 150 173 1,900  Climbing FlightAware
06:39 55.6960 12.7780 222° Southwest 136 157 1,800 -780 Descending FlightAware
06:39 55.6830 12.7580 221° Southwest 133 153 1,400 -780 Descending FlightAware
06:40 55.6700 12.7370 222° Southwest 108 124 1,100 -540 Descending FlightAware
06:40 55.6650 12.7290 222° Southwest 104 120 1,000 -540 Descending FlightAware
06:40 55.6550 12.7130 222° Southwest 108 124 700 -660 Descending FlightAware
06:41 55.6440 12.6960 221° Southwest 106 122 400 -660 Descending FlightAware
06:41 55.6310 12.6770 220° Southwest 126 145 100 -600 Descending FlightAware
06:42 55.6160 12.6540 221° Southwest 131 151 -180 Descending FlightAware
06:44 55.6179 12.6560 30° Northeast  Level Estimated
06:45 55.6179 12.6560 159° South  Level Estimated
06:46 55.6179 12.6560 159° South  Level Estimated
06:47 55.6179 12.6560 159° South  Level Estimated
06:48 55.6179 12.6560 159° South  Level Estimated
06:49 55.6179 12.6560 159° South  Level Estimated